Simultaneous Nadir Overpasses (SNOs) Predictions

Prediction of SNOs between METOP-A and TERRA Satellite Orbit:

Table of predicted SNOs for the next 14.0 days since TLE Epoch: 10/19/2012
Index Date (METOP-A) Time (METOP-A) METOP-A Lat,Lon Date (TERRA) Time (TERRA) TERRA Lat,Lon Distance(km) Time Diff (sec)
1 10/22/2012 09:45:38 81.33, 81.49 10/22/2012 09:45:41 81.33, 81.52 0.58 3
2 10/22/2012 10:36:19 -81.33,-111.08 10/22/2012 10:35:08 -81.33,-110.91 3.01 71
3 10/25/2012 04:29:19 -81.33, -19.83 10/25/2012 04:30:31 -81.33, -19.71 2.11 72
4 10/25/2012 05:19:58 81.33, 147.95 10/25/2012 05:19:57 81.34, 148.00 0.97 1
5 10/25/2012 06:10:26 -81.36, -39.45 10/25/2012 06:09:12 -81.54, -39.71 21.13 74
6 10/28/2012 00:03:38 -81.33, 46.56 10/28/2012 00:04:46 -81.33, 46.61 0.78 68
7 10/28/2012 00:54:17 81.33,-145.70 10/28/2012 00:54:12 81.33,-145.70 0.30 5
8 10/30/2012 19:37:57 -81.33, 113.22 10/30/2012 19:39:01 -81.33, 113.11 1.83 64
9 10/30/2012 20:28:36 81.33, -79.07 10/30/2012 20:28:27 81.33, -79.21 2.47 9
10 11/02/2012 15:12:17 -81.33, 179.37 11/02/2012 15:13:16 -81.32, 179.43 1.02 59




NCC Satellite Simultaneous Nadir Overpasses (SNOs) Prediction Service
